Погода в Чулкове

Россия / Орловская область     53°04′13″N   36°56′43″E
темп.,
°C
ветер,
м/с
пор.,
м/с
влажн.,
%
обл.,
%
осадки,
мм/ч
давл.,
гПа
погр.,
м
6 мая, чт
чт600:00+11ю5137470 0.0 1011386
03:00+10ююз51376100 0.0 1010347
06:00+10ю61476100 0.0 1009493
09:00+13ююз71374100 0.0 10091055
12:00+14ю91662100 0.1 10081906
15:00+12ююз91666100 0.5 10081303
18:00+10юз71386100 0.8 1009830
21:00+8зюз3793100 2.6 1011400
7 мая, пт
пт700:00+7зюз3895100 0.0 1012215
03:00+6з3893100 0.0 1013237
06:00+5з248790 0.0 1014100
09:00+10з45625 0.0 1015664
12:00+13юз45431 0.0 10151664
15:00+14юз56405 0.0 10152058
18:00+13ю4657100 0.0 1014393
21:00+9ююв41168100 0.0 1014202
8 мая, сб
сб800:00+8ююв51365100 0.0 1013305
03:00+10ююв71764100 0.0 1010568
06:00+8ююв91890100 1.1 1008756
09:00+9ю71496100 5.6 1006680
12:00+11ююз71396100 2.0 1005895
15:00+9зюз4994100 5.4 1007464
18:00+9з71175100 0.1 10081032
21:00+5з81382100 0.1 1010882
9 мая, вс
вс900:00+5з61181100 0.0 10121022
03:00+4з61188100 0.0 1014588
06:00+3з41089100 0.0 1016509
09:00+6сз687177 0.0 10171036
12:00+8ссз686099 0.0 10181350
15:00+11ссз7950100 0.1 10192102
18:00+11ссз695725 0.0 10201285
21:00+6ссз35735 0.0 102385
10 мая, пн
пн1000:00+4ссз49760 0.0 1025160
03:00+3ссз410750 0.0 1027181
06:00+3с39760 0.0 1029195
09:00+9ссв59570 0.0 10281033
12:00+13ссв795073 0.0 10271327
15:00+14св784977 0.0 10271402
18:00+13св58636 0.0 10271018
21:00+8св49805 0.0 1028163